User: anonymous   Login
Location: eljas
(40.1958°N, 6.8661°W)
Time: 11:23:04
(UTC+02:00)
Language:

Okean O Rocket - Orbit

View from above orbital plane
View from above orbital plane
View from above satellite
View from above satellite

Ground track
Ground track

The orbit data is extracted from the following two-line orbital elements,

1 25861U 99039B   17083.90717296 +.00000051 +00000-0 +14445-4 0  9990
2 25861 098.0958 054.6958 0015640 358.1564 058.0497 14.78395408953210
Epoch (UTC): 24 March 2017 21:46:19
Eccentricity: 0.0015640
inclination: 98.0958°
perigee height: 623 km
apogee height: 645 km
right ascension of ascending node: 54.6958°
argument of perigee: 358.1564°
revolutions per day: 14.78395408
mean anomaly at epoch: 58.0497°
orbit number at epoch: 95321

The dashed part of the orbit path shows where the satellite is in the earth's shadow,  

DLR